Vorticity
6 8 9 11 7 6 3 3 7 8 11 7 5 3 2 5 7 4 -1 5 5 4 4 6 5 3 3 3 3 3 2 3 4 5 5 7 6 5 7 7 5 8 7
10 8 6 9 8 6 8 10 8 10 1 2 11 8 5 6 4 7 5 7 5 5 4 2 6 4 3 5 2 0 1 3 1 4 4 5 5 4 5 5 8 7 5
7 8 6 9 8 7 5 5 6 9 11 10 11 9 8 8 18 12 4 3 8 4 4 3 4 5 3 5 4 2 2 4 3 2 4 5 4 4 4 4 4 5 7
8 8 7 7 9 7 6 4 5 5 5 5 4 4 3 4 3 3 10 9 6 7 2 1 4 5 9 2 5 5 2 3 4 2 3 3 4 3 3 3 4 5 5
6 9 9 7 9 7 6 6 6 5 4 4 3 1 1 2 3 6 13 -1 9 10 7 11 3 4 4 7 4 6 5 4 3 3 3 2 3 2 2 2 3 4 5
7 9 9 8 8 8 6 6 6 6 7 8 8 6 2 0 1 3 3 9 8 6 6 6 7 5 3 5 4 4 5 5 6 4 3 3 2 2 2 1 2 3 4
6 9 8 7 8 8 8 9 6 6 6 7 7 9 11 13 10 6 6 7 27 2 9 11 7 5 4 4 5 2 3 3 4 6 4 2 2 2 0 1 1 1 3
7 8 9 6 6 6 7 7 7 7 6 6 5 6 7 8 9 9 9 9 8 7 9 2 10 6 5 4 5 4 2 1 2 4 4 3 3 2 2 1 1 1 3
10 5 7 8 6 5 7 7 5 6 7 7 7 5 7 8 9 10 9 8 6 13 2 -14 7 11 6 5 4 5 4 2 2 2 3 4 3 4 4 5 5 4 3
6 7 8 6 8 5 7 5 7 12 6 5 5 6 5 5 6 11 11 10 7 6 18 14 -1 0 3 7 3 5 4 4 2 1 2 4 4 3 3 2 4 6 5
12 6 5 9 5 8 7 8 8 10 7 7 6 5 6 2 6 5 7 9 9 7 5 6 19 4 11 7 8 7 3 4 3 13 2 3 3 3 4 4 3 5 6
8 8 8 5 6 8 6 5 7 5 9 11 8 11 14 -1 7 6 5 6 7 8 7 6 9 5 2 18 5 0 23 4 3 2 11 21 2 1 4 5 3 6 10
14 14 11 6 5 7 8 8 9 14 -11 22 -7 8 7 9 7 9 6 4 5 6 8 9 7 5 4 2 26 -2 6 8 5 3 2 11 1 2 2 5 4 6 -11
12 17 15 13 5 6 7 10 10 13 -2 12 -2 2 6 -1 22 7 18 6 4 4 7 7 7 6 7 1 14 24 10 7 1 10 3 -5 3 3 2 1 -4 3 1
7 1 11 22 12 6 8 9 -17 7 21 23 9 8 11 10 8 6 18 11 10 6 8 11 8 8 29 4 7 -1 15 11 8 2 3 2 3 4 4 3 12 3 7
12 8 23 15 20 10 6 8 7 9 12 14 10 12 10 8 8 8 5 28 23 17 -3 6 3 47 13 11 3 -3 7 -3 30 11 4 5 4 9 6 4 4 5 4
14 -1 13 14 19 13 9 4 8 10 7 8 7 5 4 2 5 9 8 4 15 28 20 5 8 -14 46 13 10 8 12 -12 8 11 4 13 8 -9 19 5 4 6 4
2 14 4 5 1 13 19 6 4 -2 6 6 6 3 4 5 8 9 7 7 8 6 12 15 19 -4 -8 -4 7 7 10 4 3 9 4 21 16 24 8 6 3 6 7
8 9 7 9 15 13 13 9 5 7 2 6 5 6 7 5 5 3 5 6 6 7 3 5 7 7 23 6 10 9 14 10 6 7 6 12 12 10 5 6 0 7 6
10 10 2 7 17 11 27 21 13 8 3 15 14 5 -11 6 5 8 10 10 10 10 12 11 11 10 9 8 5 10 10 13 13 9 6 6 9 -2 9 -1 7 17 6
5 5 10 5 9 5 37 4 20 6 10 1 -3 26 48 6 7 8 10 18 13 11 10 11 11 10 24 13 9 6 7 16 5 -1 1 6 15 1 4 -1 3 -0 6
6 7 8 5 12 13 50 18 13 3 4 7 7 4 9 12 11 11 17 11 16 15 12 8 9 13 6 9 19 7 6 11 8 2 3 4 10 14 11 9 2 -3 5
14 8 9 9 12 18 26 13 7 6 2 4 5 -0 4 14 10 10 13 16 13 12 20 13 9 8 8 9 10 19 10 7 10 10 3 5 7 11 9 15 -8 6 15
11 15 16 12 13 14 18 28 -3 6 7 11 3 4 5 12 12 10 9 11 15 11 11 14 15 8 7 11 13 19 23 11 5 8 10 9 6 7 10 13 7 22 -3
9 10 17 14 8 20 18 15 12 14 10 5 3 4 6 12 10 9 7 2 5 7 14 16 15 13 14 13 12 10 14 27 7 9 10 9 11 10 12 15 13 15 2
5 8 13 12 6 11 10 7 9 7 5 4 4 7 10 9 13 17 10 8 7 15 18 16 16 15 13 10 19 5 13 9 12 11 10 10 6 7 6 7 6 9 13
Height
5908 5908 5907 5907 5908 5908 5909 5910 5910 5910 5909 5910 5911 5910 5911 5910 5910 5911 5912 5912 5913 5915 5916 5915 5917 5917 5917 5917 5918 5918 5918 5919 5917 5917 5917 5917 5916 5916 5916 5916 5917 5917 5916
5907 5907 5907 5907 5907 5908 5909 5908 5908 5909 5909 5909 5910 5911 5911 5911 5910 5911 5911 5911 5914 5915 5916 5917 5917 5918 5918 5918 5919 5919 5919 5920 5920 5919 5919 5919 5918 5918 5919 5919 5918 5919 5918
5906 5906 5906 5906 5905 5906 5906 5907 5908 5908 5909 5909 5909 5910 5911 5911 5910 5910 5912 5912 5914 5914 5916 5917 5917 5919 5919 5919 5920 5921 5921 5921 5922 5921 5921 5921 5920 5919 5920 5921 5920 5921 5920
5907 5906 5906 5906 5905 5906 5906 5906 5906 5908 5909 5910 5911 5911 5911 5912 5912 5912 5913 5912 5914 5913 5915 5917 5917 5918 5919 5920 5920 5921 5923 5922 5923 5923 5923 5924 5923 5921 5921 5922 5923 5923 5922
5906 5906 5905 5904 5905 5905 5904 5905 5905 5906 5907 5908 5910 5911 5912 5912 5913 5913 5912 5913 5914 5915 5915 5917 5919 5920 5920 5921 5922 5922 5923 5924 5925 5925 5925 5925 5925 5924 5923 5924 5925 5925 5925
5905 5905 5905 5904 5904 5904 5904 5904 5904 5905 5906 5907 5908 5909 5910 5911 5912 5912 5913 5913 5913 5914 5916 5918 5919 5920 5920 5922 5924 5925 5925 5925 5926 5926 5927 5928 5927 5926 5925 5925 5926 5927 5926
5905 5904 5903 5903 5903 5903 5904 5905 5905 5905 5905 5906 5906 5908 5908 5909 5910 5911 5912 5912 5913 5914 5915 5916 5918 5920 5919 5921 5924 5925 5925 5925 5926 5927 5928 5929 5928 5928 5927 5927 5927 5928 5927
5904 5903 5902 5902 5903 5903 5903 5903 5904 5904 5905 5904 5905 5906 5907 5907 5908 5910 5910 5911 5912 5913 5915 5915 5916 5917 5919 5920 5923 5925 5925 5925 5925 5926 5927 5927 5928 5929 5929 5928 5928 5928 5928
5905 5903 5903 5902 5903 5904 5903 5903 5903 5903 5905 5905 5905 5905 5905 5906 5907 5907 5909 5910 5911 5912 5914 5915 5916 5917 5919 5920 5922 5923 5924 5925 5925 5925 5924 5924 5925 5926 5928 5929 5929 5929 5929
5904 5903 5903 5902 5903 5903 5903 5902 5902 5902 5903 5903 5903 5904 5905 5905 5906 5907 5908 5910 5910 5911 5912 5914 5915 5915 5917 5919 5920 5920 5922 5923 5923 5924 5925 5925 5926 5925 5925 5928 5929 5929 5929
5906 5905 5904 5903 5902 5901 5901 5900 5900 5901 5901 5902 5901 5901 5902 5903 5904 5905 5906 5907 5908 5907 5908 5911 5912 5914 5915 5916 5918 5919 5920 5921 5920 5922 5924 5925 5925 5925 5924 5926 5928 5929 5929
5905 5904 5904 5903 5902 5900 5899 5899 5898 5898 5898 5898 5898 5898 5901 5901 5901 5903 5903 5904 5906 5907 5908 5908 5909 5911 5913 5914 5915 5916 5918 5919 5917 5921 5923 5924 5926 5924 5923 5924 5927 5928 5929
5904 5903 5901 5900 5900 5898 5898 5897 5897 5895 5896 5895 5895 5892 5897 5899 5898 5900 5900 5901 5902 5903 5903 5904 5905 5907 5909 5910 5909 5912 5915 5916 5915 5920 5922 5925 5924 5924 5922 5924 5926 5927 5927
5906 5902 5900 5899 5898 5896 5896 5895 5895 5894 5892 5892 5893 5895 5894 5898 5896 5897 5898 5900 5899 5900 5903 5902 5904 5906 5906 5908 5907 5908 5910 5913 5913 5915 5918 5921 5921 5921 5921 5924 5925 5924 5924
5904 5902 5900 5896 5895 5894 5895 5876 5864 5891 5890 5894 5893 5896 5895 5895 5895 5895 5894 5897 5898 5899 5899 5899 5897 5899 5896 5899 5903 5904 5908 5908 5912 5911 5913 5914 5917 5918 5920 5923 5922 5920 5919
5905 5904 5899 5894 5892 5891 5894 5893 5892 5891 5891 5894 5893 5896 5894 5894 5894 5894 5891 5894 5895 5894 5896 5895 5893 5883 5892 5897 5897 5902 5904 5906 5907 5911 5912 5913 5914 5916 5918 5919 5919 5917 5916
5905 5901 5898 5895 5892 5890 5890 5891 5889 5885 5891 5893 5894 5894 5892 5891 5892 5893 5889 5892 5893 5890 5894 5890 5890 5891 5894 5892 5895 5899 5901 5903 5904 5908 5909 5911 5911 5913 5914 5915 5916 5915 5915
5904 5901 5898 5895 5892 5889 5884 5886 5887 5887 5885 5889 5889 5888 5888 5887 5888 5889 5887 5888 5891 5886 5888 5889 5887 5886 5887 5886 5880 5898 5899 5900 5900 5902 5906 5906 5907 5908 5909 5911 5913 5913 5913
5901 5898 5895 5892 5889 5887 5883 5883 5884 5884 5884 5885 5885 5887 5885 5887 5886 5884 5882 5880 5884 5885 5879 5882 5884 5883 5886 5889 5889 5889 5872 5894 5896 5897 5900 5902 5904 5904 5905 5907 5908 5909 5910
5900 5895 5892 5889 5885 5881 5873 5874 5880 5881 5881 5880 5883 5882 5883 5884 5883 5882 5881 5878 5875 5877 5879 5874 5874 5873 5875 5877 5880 5888 5888 5889 5890 5893 5895 5897 5899 5900 5902 5903 5904 5906 5907
5896 5893 5891 5887 5881 5875 5870 5872 5873 5879 5880 5880 5882 5882 5871 5884 5881 5877 5875 5875 5874 5872 5871 5873 5870 5870 5865 5854 5873 5879 5883 5883 5885 5887 5890 5891 5893 5895 5897 5899 5901 5902 5902
5894 5891 5886 5885 5880 5872 5865 5870 5874 5875 5879 5880 5881 5881 5883 5880 5873 5874 5871 5870 5871 5871 5869 5866 5867 5868 5869 5870 5871 5874 5876 5878 5879 5882 5883 5886 5888 5889 5890 5895 5897 5898 5896
5895 5891 5887 5883 5877 5873 5869 5871 5874 5876 5878 5877 5876 5876 5874 5873 5871 5869 5867 5868 5867 5866 5865 5865 5864 5863 5863 5864 5866 5868 5870 5871 5874 5880 5879 5881 5884 5885 5885 5888 5891 5894 5892
5895 5891 5887 5883 5878 5874 5873 5874 5874 5874 5875 5877 5874 5872 5870 5866 5865 5865 5865 5864 5863 5861 5861 5859 5859 5859 5860 5859 5861 5861 5863 5865 5869 5872 5874 5876 5880 5881 5881 5884 5885 5887 5886
5893 5890 5888 5884 5879 5876 5875 5874 5874 5875 5876 5875 5873 5871 5868 5867 5864 5863 5862 5861 5859 5857 5855 5855 5853 5852 5853 5853 5855 5856 5858 5859 5864 5867 5870 5871 5875 5876 5876 5879 5881 5881 5877
5891 5889 5886 5884 5881 5878 5878 5877 5876 5875 5873 5873 5871 5868 5866 5865 5864 5861 5859 5857 5855 5853 5851 5849 5849 5848 5848 5847 5849 5852 5854 5857 5859 5863 5865 5868 5870 5871 5873 5875 5874 5872 5872